{"data":{"norad_id":53294,"intl_designator":"2022-086BE","name":"STARLINK-4146","alt_names":[],"object_type":"PAYLOAD","status":"ACTIVE","operator":null,"country":"US","launch_date":"2022-07-24","launch_site_code":"AFETR","launch_vehicle":null,"mission":null,"orbit_class":"UNKNOWN","rcs_meters":null,"size_class":null,"mass_kg":null,"dimensions":null,"purposes":["comms"],"wikipedia_slug":null,"has_3d_model":false,"image_url":null,"decayed_at":null,"tle_current":{"epoch":"2026-05-25T03:28:59.164608Z","epoch_age_seconds":65673,"freshness":"FRESH","line1":"1 53294U 22086BE  26145.14512922 -.00002766  00000+0 -15575-3 0  9993","line2":"2 53294  53.2128 190.7339 0000898  71.1714 288.9375 15.08847713212915","mean_motion":15.08847713,"eccentricity":8.98e-5,"inclination_deg":53.2128,"raan_deg":190.7339,"arg_perigee_deg":71.1714,"mean_anomaly_deg":288.9375,"bstar":-0.00015575,"rev_number":21291,"period_min":95.437066815503,"perigee_km":539.09858996731,"apogee_km":540.34103705102,"semimajor_km":6917.8568135092,"source":"CELESTRAK","updated_at":"2026-05-25T13:38:17.392835Z"}}}